User: anonymous   Login
Location: Caltech
(34.1382°N, 118.1253°W)
Time: 04:33:09
(UTC-07:00)
Language:

ASTRO E2 - Orbit

View from above orbital plane
View from above orbital plane
View from above satellite
View from above satellite

Ground track
Ground track

The orbit data is extracted from the following two-line orbital elements,

1 28773U 05025A   16208.47263509  .00000834  00000-0  39196-4 0  9999
2 28773  31.3822 247.2448 0004829 320.1900  39.8392 15.14895082607906
Epoch (UTC): 26 July 2016 11:20:35
Eccentricity: 0.0004829
inclination: 31.3822°
perigee height: 518 km
apogee height: 524 km
right ascension of ascending node: 247.2448°
argument of perigee: 320.1900°
revolutions per day: 15.14895082
mean anomaly at epoch: 39.8392°
orbit number at epoch: 60790

The dashed part of the orbit path shows where the satellite is in the earth's shadow,  

DLR